TimeCST,TemperatureF,Dew PointF,Humidity,Sea Level PressureIn,VisibilityMPH,Wind Direction,Wind SpeedMPH,Gust SpeedMPH,PrecipitationIn,Events,Conditions,WindDirDegrees,DateUTC
12:15 AM,30.2,28.4,93,29.73,0.2,North,34.5,43.7,N/A,,Overcast,350,2012-12-26 06:15:00
12:35 AM,30.2,30.2,100,29.74,0.2,North,33.4,41.4,N/A,,Overcast,350,2012-12-26 06:35:00
12:55 AM,-9999,-9999,N/A,29.74,0.2,North,32.2,39.1,N/A,,Overcast,350,2012-12-26 06:55:00
1:15 AM,30.2,30.2,100,29.76,0.5,North,29.9,35.7,N/A,,Overcast,350,2012-12-26 07:15:00
1:55 AM,-9999,-9999,N/A,29.78,0.5,NNW,27.6,34.5,N/A,,Overcast,340,2012-12-26 07:55:00
2:15 AM,-9999,-9999,N/A,29.79,0.5,NNW,27.6,33.4,N/A,,Overcast,340,2012-12-26 08:15:00
2:35 AM,-9999,-9999,N/A,29.79,0.5,NNW,26.5,33.4,N/A,,Overcast,340,2012-12-26 08:35:00
3:15 AM,30.2,28.4,93,29.82,0.5,NNW,24.2,-,N/A,,Overcast,340,2012-12-26 09:15:00
3:35 AM,30.2,28.4,93,29.82,1.0,NNW,21.9,-,N/A,,Overcast,340,2012-12-26 09:35:00
3:55 AM,30.2,28.4,93,29.82,2.0,NNW,23.0,27.6,N/A,,Overcast,340,2012-12-26 09:55:00
4:15 AM,28.4,28.4,100,29.82,2.5,NNW,21.9,-,N/A,,Overcast,330,2012-12-26 10:15:00
4:55 AM,28.4,26.6,93,29.83,4.0,NW,21.9,26.5,N/A,,Overcast,320,2012-12-26 10:55:00
5:15 AM,28.4,26.6,93,29.84,2.5,NW,21.9,-,N/A,,Overcast,320,2012-12-26 11:15:00
5:35 AM,28.4,26.6,93,29.86,5.0,NW,19.6,-,N/A,,Overcast,310,2012-12-26 11:35:00
5:55 AM,28.4,26.6,93,29.88,10.0,NW,21.9,26.5,N/A,,Overcast,320,2012-12-26 11:55:00
6:15 AM,28.4,24.8,86,29.90,10.0,NW,20.7,27.6,N/A,,Overcast,320,2012-12-26 12:15:00
6:35 AM,28.4,24.8,86,29.91,10.0,NW,19.6,24.2,N/A,,Overcast,310,2012-12-26 12:35:00
6:55 AM,28.4,24.8,86,29.92,10.0,NW,19.6,24.2,N/A,,Overcast,310,2012-12-26 12:55:00
7:15 AM,28.4,24.8,86,29.93,10.0,NW,20.7,26.5,N/A,,Overcast,320,2012-12-26 13:15:00
7:55 AM,28.4,24.8,86,29.96,8.0,NW,19.6,29.9,N/A,,Overcast,320,2012-12-26 13:55:00
8:35 AM,28.4,23.0,80,29.97,10.0,NW,23.0,28.8,N/A,,Overcast,320,2012-12-26 14:35:00
8:55 AM,28.4,23.0,80,30.00,10.0,NW,19.6,-,N/A,,Overcast,320,2012-12-26 14:55:00
9:15 AM,28.4,23.0,80,30.01,10.0,NNW,21.9,27.6,N/A,,Overcast,330,2012-12-26 15:15:00
9:35 AM,28.4,24.8,86,30.03,10.0,NNW,20.7,-,N/A,,Overcast,330,2012-12-26 15:35:00
9:55 AM,28.4,23.0,80,30.05,10.0,NW,21.9,-,N/A,,Overcast,320,2012-12-26 15:55:00
10:15 AM,28.4,23.0,80,30.07,10.0,NW,20.7,-,N/A,,Overcast,320,2012-12-26 16:15:00
10:35 AM,30.2,24.8,80,30.08,10.0,NW,20.7,25.3,N/A,,Overcast,320,2012-12-26 16:35:00
10:55 AM,30.2,24.8,80,30.08,10.0,NW,21.9,-,N/A,,Overcast,320,2012-12-26 16:55:00
11:15 AM,30.2,24.8,80,30.08,10.0,NNW,19.6,-,N/A,,Overcast,330,2012-12-26 17:15:00
11:35 AM,30.2,24.8,80,30.07,10.0,NNW,17.3,-,N/A,,Overcast,330,2012-12-26 17:35:00
12:15 PM,32.0,24.8,75,30.06,10.0,NNW,17.3,-,N/A,,Overcast,340,2012-12-26 18:15:00
12:35 PM,32.0,24.8,75,30.07,10.0,NW,12.7,-,N/A,,Mostly Cloudy,320,2012-12-26 18:35:00
12:55 PM,32.0,24.8,75,30.08,10.0,NW,13.8,-,N/A,,Mostly Cloudy,310,2012-12-26 18:55:00
1:35 PM,33.8,24.8,70,30.07,10.0,NW,15.0,-,N/A,,Scattered Clouds,320,2012-12-26 19:35:00
2:15 PM,-9999,-9999,N/A,30.07,10.0,NNW,17.3,-,N/A,,Mostly Cloudy,330,2012-12-26 20:15:00
2:35 PM,33.8,24.8,70,30.08,10.0,NNW,13.8,-,N/A,,Partly Cloudy,340,2012-12-26 20:35:00
2:55 PM,33.8,24.8,70,30.09,10.0,NNW,10.4,-,0.01,,Clear,330,2012-12-26 20:55:00
3:35 PM,32.0,24.8,75,30.10,10.0,NW,10.4,-,N/A,,Clear,320,2012-12-26 21:35:00
3:55 PM,32.0,23.0,69,30.11,10.0,NW,12.7,-,N/A,,Clear,320,2012-12-26 21:55:00
4:15 PM,30.2,21.2,69,30.11,10.0,NW,11.5,-,N/A,,Clear,320,2012-12-26 22:15:00
4:35 PM,28.4,21.2,74,30.12,10.0,NW,10.4,-,N/A,,Clear,320,2012-12-26 22:35:00
4:55 PM,26.6,21.2,80,30.12,10.0,NNW,8.1,-,N/A,,Clear,330,2012-12-26 22:55:00
5:15 PM,28.4,21.2,74,30.13,10.0,NW,5.8,-,N/A,,Clear,320,2012-12-26 23:15:00
5:55 PM,26.6,21.2,80,30.15,10.0,Calm,Calm,-,N/A,,Clear,0,2012-12-26 23:55:00
6:15 PM,26.6,23.0,86,30.15,10.0,Calm,Calm,-,N/A,,Clear,0,2012-12-27 00:15:00
6:35 PM,26.6,21.2,80,30.16,10.0,Calm,Calm,-,N/A,,Clear,0,2012-12-27 00:35:00
6:55 PM,21.2,19.4,93,30.18,10.0,South,3.5,-,N/A,,Clear,190,2012-12-27 00:55:00
7:15 PM,24.8,19.4,80,30.18,10.0,Calm,Calm,-,N/A,,Clear,0,2012-12-27 01:15:00
7:35 PM,24.8,21.2,86,30.18,10.0,Calm,Calm,-,N/A,,Clear,0,2012-12-27 01:35:00
7:55 PM,24.8,19.4,80,30.19,10.0,NNW,6.9,-,N/A,,Clear,340,2012-12-27 01:55:00
8:15 PM,19.4,15.8,86,30.18,10.0,NW,5.8,-,N/A,,Clear,320,2012-12-27 02:15:00
8:35 PM,21.2,17.6,86,30.20,10.0,NNW,6.9,-,N/A,,Clear,330,2012-12-27 02:35:00
8:55 PM,24.8,19.4,80,30.20,10.0,NW,5.8,-,N/A,,Clear,320,2012-12-27 02:55:00
9:15 PM,24.8,19.4,80,30.20,10.0,NNW,5.8,-,N/A,,Clear,330,2012-12-27 03:15:00
9:35 PM,23.0,19.4,86,30.21,10.0,NNW,6.9,-,N/A,,Clear,330,2012-12-27 03:35:00
9:55 PM,24.8,19.4,80,30.23,10.0,NW,6.9,-,N/A,,Clear,310,2012-12-27 03:55:00
10:35 PM,24.8,17.6,74,30.22,10.0,NW,5.8,-,N/A,,Clear,310,2012-12-27 04:35:00
10:55 PM,21.2,17.6,86,30.21,10.0,NNW,4.6,-,N/A,,Clear,330,2012-12-27 04:55:00
11:35 PM,19.4,17.6,93,30.21,10.0,NE,4.6,-,N/A,,Clear,50,2012-12-27 05:35:00
11:55 PM,24.8,19.4,80,30.20,10.0,NNE,5.8,-,N/A,,Clear,30,2012-12-27 05:55:00